| time (UTC) | temp F | wind direction | speed MPH | gust MPH | rain 1hr in | rain 24hr in | rain mn in | humidity % | barometer mb |
| 20260906223543 | 80 | 271 | 1.0 | 2.0 | 0.00 | 0.00 | 0.00 | 50 | 1018.7 |
| 20260906222541 | 80 | 232 | 3.0 | 4.0 | 0.00 | 0.00 | 0.00 | 50 | 1018.7 |
| 20260906221538 | 80 | 247 | 3.0 | 4.0 | 0.00 | 0.00 | 0.00 | 51 | 1018.6 |
| 20260906220536 | 80 | 227 | 2.0 | 4.0 | 0.00 | 0.00 | 0.00 | 51 | 1018.5 |
| 20260906215533 | 80 | 238 | 3.0 | 4.0 | 0.00 | 0.00 | 0.00 | 51 | 1018.5 |
| 20260906214531 | 80 | 239 | 2.0 | 4.0 | 0.00 | 0.00 | 0.00 | 52 | 1018.5 |
| 20260906213528 | 80 | 225 | 1.0 | 2.0 | 0.00 | 0.00 | 0.00 | 52 | 1018.5 |
| 20260906212525 | 80 | 240 | 3.0 | 4.0 | 0.00 | 0.00 | 0.00 | 51 | 1018.7 |
| 20260906211523 | 80 | 226 | 3.0 | 4.0 | 0.00 | 0.00 | 0.00 | 53 | 1018.7 |
| 20260906210520 | 80 | 227 | 3.0 | 4.0 | 0.00 | 0.00 | 0.00 | 53 | 1018.7 |
| 20260906205517 | 81 | 205 | 1.0 | 4.0 | 0.00 | 0.00 | 0.00 | 54 | 1018.6 |
| 20260906204515 | 80 | 225 | 2.0 | 4.0 | 0.00 | 0.00 | 0.00 | 55 | 1018.7 |
| 20260906203612 | 81 | 229 | 2.0 | 4.0 | 0.00 | 0.00 | 0.00 | 55 | 1018.6 |
| 20260906202610 | 81 | 225 | 1.0 | 2.0 | 0.00 | 0.00 | 0.00 | 57 | 1018.7 |
| 20260906201607 | 81 | 248 | 1.0 | 2.0 | 0.00 | 0.00 | 0.00 | 58 | 1018.8 |
| 20260906200605 | 81 | 225 | 1.0 | 2.0 | 0.00 | 0.00 | 0.00 | 60 | 1018.7 |
| 20260906195602 | 80 | 0.0 | 0.0 | 0.00 | 0.00 | 0.00 | 65 | 1018.7 | |
| 20260906194600 | 80 | 248 | 0.0 | 2.0 | 0.00 | 0.00 | 0.00 | 68 | 1018.5 |
| 20260906193557 | 81 | 248 | 0.0 | 2.0 | 0.00 | 0.00 | 0.00 | 70 | 1018.3 |
| 20260906192554 | 80 | 281 | 2.0 | 2.0 | 0.00 | 0.00 | 0.00 | 71 | 1018.2 |
| 20260906191552 | 81 | 316 | 1.0 | 4.0 | 0.00 | 0.00 | 0.00 | 71 | 1018.1 |
| 20260906190549 | 80 | 343 | 0.0 | 2.0 | 0.00 | 0.00 | 0.00 | 71 | 1018.0 |
| 20260906185547 | 81 | 12 | 2.0 | 4.0 | 0.00 | 0.00 | 0.00 | 70 | 1017.9 |
| 20260906184544 | 81 | 351 | 2.0 | 4.0 | 0.00 | 0.00 | 0.00 | 70 | 1017.8 |
| 20260906183541 | 81 | 354 | 2.0 | 4.0 | 0.00 | 0.00 | 0.00 | 70 | 1017.7 |
| 20260906182539 | 81 | 35 | 1.0 | 4.0 | 0.00 | 0.00 | 0.00 | 70 | 1017.7 |
| 20260906181536 | 81 | 357 | 3.0 | 4.0 | 0.00 | 0.00 | 0.00 | 69 | 1017.6 |
| 20260906180534 | 82 | 65 | 2.0 | 4.0 | 0.00 | 0.00 | 0.00 | 67 | 1017.7 |
| 20260906175531 | 82 | 329 | 4.0 | 6.0 | 0.00 | 0.00 | 0.00 | 66 | 1017.4 |
| 20260906174528 | 83 | 22 | 3.0 | 6.0 | 0.00 | 0.00 | 0.00 | 65 | 1017.5 |
| 20260906173526 | 84 | 6 | 3.0 | 6.0 | 0.00 | 0.00 | 0.00 | 64 | 1017.6 |
| 20260906172523 | 85 | 38 | 0.0 | 4.0 | 0.00 | 0.00 | 0.00 | 61 | 1017.4 |
| 20260906171521 | 85 | 24 | 3.0 | 4.0 | 0.00 | 0.00 | 0.00 | 60 | 1017.4 |
| 20260906170518 | 85 | 349 | 2.0 | 6.0 | 0.00 | 0.00 | 0.00 | 60 | 1017.6 |
| 20260906165515 | 85 | 17 | 3.0 | 4.0 | 0.00 | 0.00 | 0.00 | 59 | 1017.4 |
| 20260906164613 | 85 | 33 | 4.0 | 7.0 | 0.00 | 0.00 | 0.00 | 59 | 1017.4 |
| 20260906163610 | 86 | 23 | 3.0 | 7.0 | 0.00 | 0.00 | 0.00 | 58 | 1017.4 |
| 20260906162608 | 87 | 97 | 2.0 | 4.0 | 0.00 | 0.00 | 0.00 | 56 | 1017.4 |
| 20260906161605 | 88 | 108 | 3.0 | 8.0 | 0.00 | 0.00 | 0.00 | 54 | 1017.2 |
| 20260906160603 | 89 | 105 | 4.0 | 8.0 | 0.00 | 0.00 | 0.00 | 53 | 1017.2 |
| 20260906155600 | 90 | 70 | 3.0 | 7.0 | 0.00 | 0.00 | 0.00 | 51 | 1017.3 |
| 20260906154558 | 91 | 44 | 2.0 | 4.0 | 0.00 | 0.00 | 0.00 | 49 | 1017.2 |
| 20260906153555 | 92 | 114 | 1.0 | 4.0 | 0.00 | 0.00 | 0.00 | 48 | 1017.2 |
| 20260906152553 | 92 | 94 | 2.0 | 6.0 | 0.00 | 0.00 | 0.00 | 48 | 1017.1 |
| 20260906151550 | 92 | 16 | 3.0 | 6.0 | 0.00 | 0.00 | 0.00 | 48 | 1017.2 |
| 20260906150547 | 91 | 43 | 3.0 | 7.0 | 0.00 | 0.00 | 0.00 | 49 | 1017.3 |
| 20260906145545 | 92 | 31 | 4.0 | 8.0 | 0.00 | 0.00 | 0.00 | 47 | 1017.2 |
| 20260906144542 | 93 | 184 | 2.0 | 6.0 | 0.00 | 0.00 | 0.00 | 46 | 1017.3 |
| 20260906143539 | 91 | 23 | 5.0 | 8.0 | 0.00 | 0.00 | 0.00 | 47 | 1017.4 |
| 20260906142537 | 91 | 59 | 4.0 | 9.0 | 0.00 | 0.00 | 0.00 | 47 | 1017.4 |
| 20260906141534 | 92 | 42 | 4.0 | 11.0 | 0.00 | 0.00 | 0.00 | 46 | 1017.5 |
| 20260906140532 | 92 | 42 | 3.0 | 7.0 | 0.00 | 0.00 | 0.00 | 46 | 1017.5 |
| 20260906135529 | 93 | 56 | 3.0 | 8.0 | 0.00 | 0.00 | 0.00 | 44 | 1017.6 |
| 20260906134526 | 92 | 5 | 2.0 | 6.0 | 0.00 | 0.00 | 0.00 | 44 | 1017.6 |
| 20260906133524 | 93 | 355 | 3.0 | 6.0 | 0.00 | 0.00 | 0.00 | 43 | 1017.7 |
| 20260906132521 | 94 | 96 | 2.0 | 7.0 | 0.00 | 0.00 | 0.00 | 42 | 1017.8 |
| 20260906131519 | 93 | 68 | 2.0 | 6.0 | 0.00 | 0.00 | 0.00 | 43 | 1017.8 |
| 20260906130516 | 90 | 349 | 6.0 | 13.0 | 0.00 | 0.00 | 0.00 | 46 | 1017.7 |
| 20260906125614 | 92 | 36 | 4.0 | 11.0 | 0.00 | 0.00 | 0.00 | 44 | 1017.9 |
| 20260906124611 | 91 | 55 | 5.0 | 13.0 | 0.00 | 0.00 | 0.00 | 44 | 1017.9 |
| 20260906123608 | 91 | 52 | 4.0 | 11.0 | 0.00 | 0.00 | 0.00 | 43 | 1017.8 |
| 20260906122606 | 93 | 39 | 4.0 | 9.0 | 0.00 | 0.00 | 0.00 | 41 | 1017.9 |
| 20260906121603 | 93 | 147 | 3.0 | 9.0 | 0.00 | 0.00 | 0.00 | 40 | 1018.0 |
| 20260906120601 | 93 | 18 | 3.0 | 11.0 | 0.00 | 0.00 | 0.00 | 40 | 1018.0 |
| 20260906115558 | 93 | 96 | 2.0 | 6.0 | 0.00 | 0.00 | 0.00 | 40 | 1018.0 |
| 20260906114555 | 92 | 54 | 4.0 | 9.0 | 0.00 | 0.00 | 0.00 | 41 | 1018.1 |
| 20260906113553 | 93 | 48 | 3.0 | 8.0 | 0.00 | 0.00 | 0.00 | 39 | 1018.0 |
| 20260906112550 | 93 | 85 | 2.0 | 4.0 | 0.00 | 0.00 | 0.00 | 39 | 1018.2 |
| 20260906111548 | 91 | 18 | 2.0 | 6.0 | 0.00 | 0.00 | 0.00 | 40 | 1018.3 |
| 20260906110545 | 91 | 31 | 2.0 | 6.0 | 0.00 | 0.00 | 0.00 | 40 | 1018.3 |
| 20260906105543 | 92 | 334 | 2.0 | 4.0 | 0.00 | 0.00 | 0.00 | 39 | 1018.3 |
| 20260906104540 | 92 | 112 | 2.0 | 4.0 | 0.00 | 0.00 | 0.00 | 39 | 1018.4 |
| 20260906103537 | 92 | 150 | 1.0 | 4.0 | 0.00 | 0.00 | 0.00 | 39 | 1018.5 |
| 20260906102535 | 91 | 116 | 2.0 | 6.0 | 0.00 | 0.00 | 0.00 | 39 | 1018.5 |
| 20260906101532 | 91 | 45 | 1.0 | 4.0 | 0.00 | 0.00 | 0.00 | 39 | 1018.6 |
| 20260906100529 | 89 | 52 | 1.0 | 4.0 | 0.00 | 0.00 | 0.00 | 41 | 1018.6 |
| 20260906095527 | 90 | 107 | 1.0 | 4.0 | 0.00 | 0.00 | 0.00 | 40 | 1018.6 |
| 20260906094524 | 89 | 41 | 2.0 | 7.0 | 0.00 | 0.00 | 0.00 | 40 | 1018.6 |
| 20260906093522 | 89 | 142 | 2.0 | 4.0 | 0.00 | 0.00 | 0.00 | 40 | 1018.7 |
| 20260906092519 | 88 | 16 | 3.0 | 8.0 | 0.00 | 0.00 | 0.00 | 42 | 1018.6 |
| 20260906091516 | 87 | 28 | 3.0 | 7.0 | 0.00 | 0.00 | 0.00 | 42 | 1018.6 |
| 20260906090614 | 87 | 37 | 3.0 | 7.0 | 0.00 | 0.00 | 0.00 | 43 | 1018.6 |
| 20260906085612 | 87 | 59 | 3.0 | 7.0 | 0.00 | 0.00 | 0.00 | 43 | 1018.4 |
| 20260906084609 | 87 | 354 | 3.0 | 7.0 | 0.00 | 0.00 | 0.00 | 43 | 1018.4 |
| 20260906083607 | 87 | 23 | 2.0 | 7.0 | 0.00 | 0.00 | 0.00 | 42 | 1018.2 |
| 20260906082604 | 86 | 3 | 3.0 | 7.0 | 0.00 | 0.00 | 0.00 | 42 | 1018.2 |
| 20260906081601 | 86 | 30 | 4.0 | 8.0 | 0.00 | 0.00 | 0.00 | 41 | 1018.1 |
| 20260906080559 | 86 | 338 | 3.0 | 6.0 | 0.00 | 0.00 | 0.00 | 41 | 1018.0 |
| 20260906075556 | 87 | 349 | 0.0 | 2.0 | 0.00 | 0.00 | 0.00 | 41 | 1018.0 |
| 20260906074553 | 84 | 0.0 | 0.0 | 0.00 | 0.00 | 0.00 | 44 | 1017.8 | |
| 20260906073551 | 83 | 293 | 1.0 | 2.0 | 0.00 | 0.00 | 0.00 | 45 | 1017.8 |
| 20260906072548 | 82 | 323 | 1.0 | 4.0 | 0.00 | 0.00 | 0.00 | 47 | 1017.8 |
| 20260906071546 | 82 | 0.0 | 2.0 | 0.00 | 0.00 | 0.00 | 48 | 1017.8 | |
| 20260906070543 | 80 | 8 | 2.0 | 4.0 | 0.00 | 0.00 | 0.00 | 50 | 1017.9 |
| 20260906065540 | 78 | 6 | 4.0 | 7.0 | 0.00 | 0.00 | 0.00 | 50 | 1017.7 |
| 20260906064538 | 80 | 53 | 2.0 | 6.0 | 0.00 | 0.00 | 0.00 | 48 | 1017.7 |
| 20260906063535 | 80 | 24 | 2.0 | 4.0 | 0.00 | 0.00 | 0.00 | 48 | 1017.5 |
| 20260906062533 | 79 | 4 | 2.0 | 4.0 | 0.00 | 0.00 | 0.00 | 50 | 1017.3 |
| 20260906061530 | 79 | 119 | 1.0 | 2.0 | 0.00 | 0.00 | 0.00 | 51 | 1017.1 |
| 20260906060527 | 78 | 43 | 2.0 | 4.0 | 0.00 | 0.00 | 0.00 | 51 | 1017.1 |
| 20260906055525 | 78 | 68 | 0.0 | 2.0 | 0.00 | 0.00 | 0.00 | 51 | 1016.9 |
| 20260906054522 | 77 | 0.0 | 2.0 | 0.00 | 0.00 | 0.00 | 51 | 1016.9 | |
| 20260906053520 | 76 | 106 | 0.0 | 2.0 | 0.00 | 0.00 | 0.00 | 52 | 1016.9 |
| 20260906052517 | 76 | 0.0 | 0.0 | 0.00 | 0.00 | 0.00 | 53 | 1016.9 | |
| 20260906051515 | 76 | 0.0 | 2.0 | 0.00 | 0.00 | 0.00 | 51 | 1016.9 | |
| 20260906050612 | 76 | 113 | 0.0 | 2.0 | 0.00 | 0.00 | 0.00 | 48 | 1016.8 |
| 20260906045609 | 77 | 180 | 0.0 | 2.0 | 0.00 | 0.00 | 0.00 | 48 | 1016.8 |
| 20260906044607 | 78 | 90 | 0.0 | 2.0 | 0.00 | 0.00 | 0.00 | 46 | 1016.8 |
| 20260906043604 | 78 | 237 | 2.0 | 4.0 | 0.00 | 0.00 | 0.00 | 45 | 1016.9 |
| 20260906042602 | 75 | 248 | 0.0 | 2.0 | 0.00 | 0.00 | 0.00 | 52 | 1016.9 |
| 20260906041559 | 75 | 248 | 0.0 | 2.0 | 0.00 | 0.00 | 0.00 | 52 | 1017.1 |
| 20260906040556 | 75 | 240 | 2.0 | 2.0 | 0.00 | 0.00 | 0.00 | 52 | 1017.1 |
| 20260906035554 | 76 | 173 | 1.0 | 2.0 | 0.00 | 0.00 | 0.00 | 51 | 1017.1 |
| 20260906034551 | 76 | 184 | 1.0 | 2.0 | 0.00 | 0.00 | 0.00 | 48 | 1017.2 |
| 20260906033549 | 76 | 227 | 1.0 | 4.0 | 0.00 | 0.00 | 0.00 | 48 | 1017.2 |
| 20260906032546 | 76 | 236 | 1.0 | 2.0 | 0.00 | 0.00 | 0.00 | 52 | 1017.4 |
| 20260906031544 | 75 | 193 | 2.0 | 2.0 | 0.00 | 0.00 | 0.00 | 53 | 1017.3 |
| 20260906030541 | 76 | 131 | 1.0 | 4.0 | 0.00 | 0.00 | 0.00 | 48 | 1017.3 |
| 20260906025538 | 78 | 215 | 1.0 | 2.0 | 0.00 | 0.00 | 0.00 | 44 | 1017.3 |
| 20260906024536 | 80 | 0.0 | 0.0 | 0.00 | 0.00 | 0.00 | 40 | 1017.3 | |
| 20260906023533 | 79 | 241 | 2.0 | 4.0 | 0.00 | 0.00 | 0.00 | 42 | 1017.5 |
| 20260906022530 | 78 | 248 | 0.0 | 2.0 | 0.00 | 0.00 | 0.00 | 45 | 1017.4 |
| 20260906021528 | 79 | 245 | 3.0 | 4.0 | 0.00 | 0.00 | 0.00 | 42 | 1017.5 |
| 20260906020525 | 77 | 233 | 3.0 | 4.0 | 0.00 | 0.00 | 0.00 | 47 | 1017.4 |
| 20260906015523 | 77 | 225 | 4.0 | 6.0 | 0.00 | 0.00 | 0.00 | 49 | 1017.6 |
| 20260906014520 | 77 | 229 | 2.0 | 2.0 | 0.00 | 0.00 | 0.00 | 46 | 1017.6 |
| 20260906013517 | 77 | 133 | 1.0 | 2.0 | 0.00 | 0.00 | 0.00 | 46 | 1017.7 |
| 20260906012515 | 78 | 97 | 1.0 | 2.0 | 0.00 | 0.00 | 0.00 | 45 | 1017.6 |
| 20260906011613 | 79 | 270 | 0.0 | 2.0 | 0.00 | 0.00 | 0.00 | 41 | 1017.6 |
| 20260906010610 | 77 | 243 | 1.0 | 2.0 | 0.00 | 0.00 | 0.00 | 45 | 1017.7 |
| 20260906005607 | 77 | 235 | 2.0 | 4.0 | 0.00 | 0.00 | 0.00 | 45 | 1017.8 |
| 20260906004605 | 77 | 220 | 0.0 | 2.0 | 0.00 | 0.00 | 0.00 | 46 | 1017.9 |
| 20260906003602 | 78 | 237 | 0.0 | 2.0 | 0.00 | 0.00 | 0.00 | 46 | 1017.9 |
| 20260906002600 | 77 | 228 | 2.0 | 4.0 | 0.00 | 0.00 | 0.00 | 47 | 1018.0 |
| 20260906001557 | 77 | 231 | 1.0 | 2.0 | 0.00 | 0.00 | 0.00 | 52 | 1018.2 |
| 20260906000554 | 77 | 203 | 1.0 | 2.0 | 0.00 | 0.00 | 0.00 | 54 | 1018.3 |
| 20260905235552 | 77 | 225 | 1.0 | 2.0 | 0.00 | 0.00 | 0.00 | 54 | 1018.3 |
| 20260905234550 | 77 | 0.0 | 0.0 | 0.00 | 0.00 | 0.00 | 54 | 1018.4 | |
| 20260905233547 | 77 | 248 | 0.0 | 2.0 | 0.00 | 0.00 | 0.00 | 53 | 1018.3 |
| 20260905232544 | 77 | 241 | 1.0 | 2.0 | 0.00 | 0.00 | 0.00 | 54 | 1018.4 |
| 20260905231541 | 76 | 234 | 3.0 | 6.0 | 0.00 | 0.00 | 0.00 | 55 | 1018.5 |
| 20260905230539 | 77 | 212 | 1.0 | 2.0 | 0.00 | 0.00 | 0.00 | 56 | 1018.8 |
| 20260905225536 | 78 | 0.0 | 0.0 | 0.00 | 0.00 | 0.00 | 55 | 1018.7 | |
| 20260905224534 | 78 | 227 | 1.0 | 2.0 | 0.00 | 0.00 | 0.00 | 55 | 1018.7 |